| time (UTC) | temp C | wind direction | speed KPH | gust KPH | rain 1hr cm | rain 24hr cm | rain mn cm | humidity % | barometer mb |
| 20260508151538 | 13 | 213 | 9.7 | 25.7 | 0.00 | 0.00 | 0.00 | 59 | 1021.1 |
| 20260508150035 | 13 | 218 | 9.7 | 24.1 | 0.00 | 0.00 | 0.00 | 59 | 1021.0 |
| 20260508144535 | 13 | 208 | 8.0 | 20.9 | 0.00 | 0.00 | 0.00 | 58 | 1020.7 |
| 20260508143033 | 12 | 91 | 3.2 | 14.5 | 0.00 | 0.00 | 0.00 | 56 | 1020.7 |
| 20260508141608 | 12 | 22 | 3.2 | 14.5 | 0.00 | 0.00 | 0.00 | 56 | 1020.6 |
| 20260508140142 | 12 | 325 | 3.2 | 11.3 | 0.00 | 0.00 | 0.00 | 55 | 1020.5 |
| 20260508134535 | 12 | 4 | 1.6 | 9.7 | 0.00 | 0.00 | 0.00 | 55 | 1020.4 |
| 20260508133035 | 13 | 252 | 3.2 | 12.9 | 0.00 | 0.00 | 0.00 | 56 | 1020.2 |
| 20260508130036 | 13 | 209 | 6.4 | 16.1 | 0.00 | 0.00 | 0.00 | 57 | 1020.0 |
| 20260508124532 | 13 | 193 | 4.8 | 16.1 | 0.00 | 0.00 | 0.00 | 59 | 1019.9 |
| 20260508123035 | 12 | 205 | 4.8 | 19.3 | 0.00 | 0.00 | 0.00 | 62 | 1019.9 |
| 20260508121609 | 11 | 196 | 1.6 | 9.7 | 0.00 | 0.00 | 0.00 | 66 | 1019.8 |
| 20260508120142 | 8 | 171 | 1.6 | 6.4 | 0.00 | 0.00 | 0.00 | 70 | 1019.7 |
| 20260508114535 | 8 | 115 | 0.0 | 4.8 | 0.00 | 0.00 | 0.00 | 70 | 1019.6 |
| 20260508113149 | 7 | 107 | 0.0 | 4.8 | 0.00 | 0.00 | 0.00 | 69 | 1019.4 |
| 20260508111648 | 7 | 138 | 1.6 | 6.4 | 0.00 | 0.00 | 0.00 | 69 | 1019.3 |
| 20260508110033 | 7 | 156 | 1.6 | 6.4 | 0.00 | 0.00 | 0.00 | 67 | 1019.2 |
| 20260508104529 | 7 | 120 | 1.6 | 4.8 | 0.00 | 0.00 | 0.00 | 66 | 1019.2 |
| 20260508103120 | 7 | 122 | 1.6 | 6.4 | 0.00 | 0.00 | 0.00 | 65 | 1019.3 |
| 20260508103111 | 7 | 124 | 1.6 | 6.4 | 0.00 | 0.00 | 0.00 | 64 | 1019.3 |
| 20260508100154 | 7 | 132 | 0.0 | 3.2 | 0.00 | 0.00 | 0.00 | 62 | 1019.3 |
| 20260508094532 | 7 | 125 | 0.0 | 4.8 | 0.00 | 0.00 | 0.00 | 61 | 1019.3 |
| 20260508093033 | 7 | 127 | 1.6 | 6.4 | 0.00 | 0.00 | 0.00 | 60 | 1019.2 |
| 20260508091535 | 8 | 116 | 1.6 | 8.0 | 0.00 | 0.00 | 0.00 | 59 | 1019.3 |
| 20260508090108 | 8 | 115 | 0.0 | 6.4 | 0.00 | 0.00 | 0.00 | 59 | 1019.2 |
| 20260508083035 | 8 | 114 | 1.6 | 6.4 | 0.00 | 0.00 | 0.00 | 56 | 1019.3 |
| 20260508081531 | 11 | 128 | 0.0 | 6.4 | 0.00 | 0.00 | 0.00 | 52 | 1019.3 |
| 20260508073034 | 10 | 172 | 0.0 | 6.4 | 0.00 | 0.00 | 0.00 | 53 | 1019.4 |
| 20260508071608 | 10 | 143 | 0.0 | 6.4 | 0.00 | 0.00 | 0.00 | 51 | 1019.4 |
| 20260508064535 | 12 | 192 | 1.6 | 9.7 | 0.00 | 0.00 | 0.00 | 47 | 1019.4 |
| 20260508063144 | 12 | 202 | 1.6 | 8.0 | 0.00 | 0.00 | 0.00 | 49 | 1019.5 |
| 20260508061543 | 11 | 189 | 0.0 | 3.2 | 0.00 | 0.00 | 0.00 | 47 | 1019.5 |
| 20260508060034 | 11 | 125 | 0.0 | 1.6 | 0.00 | 0.00 | 0.00 | 46 | 1019.6 |
| 20260508053032 | 11 | 189 | 0.0 | 1.6 | 0.00 | 0.00 | 0.00 | 43 | 1019.6 |
| 20260508051534 | 12 | 199 | 0.0 | 3.2 | 0.00 | 0.00 | 0.00 | 41 | 1019.6 |
| 20260508050031 | 12 | 180 | 0.0 | 3.2 | 0.00 | 0.00 | 0.00 | 40 | 1019.6 |
| 20260508044537 | 12 | 148 | 0.0 | 6.4 | 0.00 | 0.00 | 0.00 | 39 | 1019.5 |
| 20260508043035 | 13 | 144 | 0.0 | 4.8 | 0.00 | 0.00 | 0.00 | 38 | 1019.4 |
| 20260508041532 | 14 | 170 | 0.0 | 6.4 | 0.00 | 0.00 | 0.00 | 36 | 1019.3 |
| 20260508040031 | 15 | 195 | 1.6 | 9.7 | 0.00 | 0.00 | 0.00 | 34 | 1019.1 |
| 20260508033111 | 16 | 207 | 1.6 | 12.9 | 0.00 | 0.00 | 0.00 | 30 | 1018.7 |
| 20260508031644 | -17 | 0 | 0.0 | 0.0 | 0.00 | 0.00 | 0.00 | 100 | |
| 20260508030037 | 17 | 231 | 4.8 | 12.9 | 0.00 | 0.00 | 0.00 | 27 | 1018.5 |
| 20260508024534 | 18 | 227 | 1.6 | 12.9 | 0.00 | 0.00 | 0.00 | 26 | 1018.5 |
| 20260508023035 | 19 | 270 | 3.2 | 12.9 | 0.00 | 0.00 | 0.00 | 25 | 1018.4 |
| 20260508021530 | 19 | 258 | 3.2 | 12.9 | 0.00 | 0.00 | 0.00 | 25 | 1018.2 |
| 20260508020034 | 20 | 248 | 3.2 | 14.5 | 0.00 | 0.00 | 0.00 | 25 | 1018.2 |
| 20260508014536 | 20 | 256 | 4.8 | 12.9 | 0.00 | 0.00 | 0.00 | 25 | 1018.1 |
| 20260508013150 | 21 | 264 | 4.8 | 14.5 | 0.00 | 0.00 | 0.00 | 24 | 1018.2 |
| 20260508011533 | 21 | 250 | 6.4 | 22.5 | 0.00 | 0.00 | 0.00 | 24 | 1018.3 |
| 20260508010037 | 22 | 238 | 4.8 | 17.7 | 0.00 | 0.00 | 0.00 | 24 | 1018.3 |
| 20260508004638 | 21 | 262 | 4.8 | 17.7 | 0.00 | 0.00 | 0.00 | 23 | 1018.2 |
| 20260508003108 | 22 | 249 | 6.4 | 19.3 | 0.00 | 0.00 | 0.00 | 22 | 1018.2 |
| 20260508001534 | 22 | 244 | 8.0 | 20.9 | 0.00 | 0.00 | 0.00 | 22 | 1018.1 |
| 20260508000038 | 22 | 232 | 8.0 | 24.1 | 0.00 | 0.00 | 0.00 | 22 | 1018.1 |
| 20260507234542 | 22 | 229 | 8.0 | 22.5 | 0.00 | 0.00 | 0.00 | 22 | 1018.1 |
| 20260507234536 | 22 | 237 | 8.0 | 20.9 | 0.00 | 0.00 | 0.00 | 22 | 1018.2 |
| 20260507231534 | 22 | 237 | 9.7 | 24.1 | 0.00 | 0.00 | 0.00 | 22 | 1018.4 |
| 20260507230031 | 22 | 231 | 8.0 | 24.1 | 0.00 | 0.00 | 0.00 | 22 | 1018.5 |
| 20260507223035 | 21 | 236 | 9.7 | 22.5 | 0.00 | 0.00 | 0.00 | 23 | 1018.6 |
| 20260507221535 | 21 | 237 | 9.7 | 24.1 | 0.00 | 0.00 | 0.00 | 23 | 1018.8 |
| 20260507214534 | 21 | 230 | 9.7 | 22.5 | 0.00 | 0.00 | 0.00 | 24 | 1019.1 |
| 20260507210110 | 21 | 220 | 9.7 | 22.5 | 0.00 | 0.00 | 0.00 | 25 | 1019.2 |
| 20260507203032 | 21 | 228 | 8.0 | 20.9 | 0.00 | 0.00 | 0.00 | 26 | 1019.6 |
| 20260507201533 | 21 | 217 | 8.0 | 19.3 | 0.00 | 0.00 | 0.00 | 27 | 1019.7 |
| 20260507200038 | 21 | 214 | 9.7 | 22.5 | 0.00 | 0.00 | 0.00 | 27 | 1019.9 |
| 20260507194534 | 21 | 204 | 9.7 | 20.9 | 0.00 | 0.00 | 0.00 | 28 | 1020.0 |
| 20260507193110 | 20 | 199 | 9.7 | 22.5 | 0.00 | 0.00 | 0.00 | 28 | 1020.1 |
| 20260507191530 | 20 | 198 | 9.7 | 27.4 | 0.00 | 0.00 | 0.00 | 28 | 1020.2 |
| 20260507181536 | 19 | 189 | 6.4 | 19.3 | 0.00 | 0.00 | 0.00 | 34 | 1020.6 |
| 20260507180110 | 18 | 201 | 8.0 | 19.3 | 0.00 | 0.00 | 0.00 | 35 | 1020.7 |
| 20260507174643 | 18 | 200 | 8.0 | 19.3 | 0.00 | 0.00 | 0.00 | 36 | 1021.0 |
| 20260507173034 | 17 | 203 | 8.0 | 17.7 | 0.00 | 0.00 | 0.00 | 37 | 1021.0 |
| 20260507171540 | 16 | 220 | 6.4 | 17.7 | 0.00 | 0.00 | 0.00 | 44 | 1021.1 |
| 20260507164610 | 15 | 218 | 6.4 | 17.7 | 0.00 | 0.00 | 0.00 | 47 | 1021.2 |
| 20260507163037 | 15 | 231 | 9.7 | 22.5 | 0.00 | 0.00 | 0.00 | 50 | 1021.3 |
| 20260507161533 | 15 | 236 | 6.4 | 17.7 | 0.00 | 0.00 | 0.00 | 53 | 1021.5 |
| 20260507160036 | 14 | 238 | 4.8 | 19.3 | 0.00 | 0.00 | 0.00 | 55 | 1021.5 |
| 20260507154534 | 14 | 223 | 4.8 | 17.7 | 0.00 | 0.00 | 0.00 | 56 | 1021.5 |
| 20260507153111 | 13 | 233 | 6.4 | 22.5 | 0.00 | 0.00 | 0.00 | 58 | 1021.6 |